CARTOSAT-2C

Last updated on Thu Oct 30 2025 00:02:31 GMT+0000 (Coordinated Universal Time)

1 41599U 16040A 25302.46978485 .00006796 00000+0 32559-3 0 9996 2 41599 97.4826 0.1594 0010536 216.2844 143.7677 15.19206970518680
UTC large
Height (km)
Speed (km/s)
/
Latitude / Longitude
Inclination (degrees)
Orbital Period (minutes)
Azimuth
Elevation
Range (km)
Doppler Factor

Next 0 passes for location: London (51.5072 / 0.1276)

Sorry there are no passes over London.